Weather History for Bowling Green, KY

Change the Weather History Date:

Sunday, December 25, 2011

  Actual Average Record
Temperature  
Mean Temperature 44 °F 36 °F  
Max Temperature 56 °F 46 °F 70 °F (1982)
Min Temperature 31 °F 28 °F -7 °F (1983)
Degree Days  
Heating Degree Days 21 28  
Month to date heating degree days 540 645  
Since 1 July heating degree days 1173 1408  
Cooling Degree Days 0 0  
Month to date cooling degree days 0 0  
Year to date cooling degree days 1810 1491  
Moisture  
Dew Point 28 °F    
Average Humidity 61    
Maximum Humidity 89    
Minimum Humidity 32    
Precipitation  
Precipitation 0.00 in 0.15 in 2.96 in (1987)
Month to date precipitation 4.01 3.99  
Year to date precipitation 62.33 49.08  
Snow  
Snow 0.00 in 0.10 in 4.50 in (1935)
Month to date snowfall 0.0 0.8  
Since 1 July snowfall T 0.8  
Snow Depth 0.00 in    
Sea Level Pressure  
Sea Level Pressure 30.35 in    
Wind  
Wind Speed 5 mph (WSW)    
Max Wind Speed 16 mph    
Max Gust Speed 23 mph    
Visibility 10 miles    
Events      
T = Trace of Precipitation, MM = Missing Value Source: NWS Daily Summary

Daily Weather History Graph

Daily Weather History Graph

Search for Another Location

Airport:

Trip Planner

Search our weather history database for the weather conditions in past years. The results will help you decide how hot, cold, wet, or windy it might be!

Date:

Astronomy

Dec. 25, 2011 Rise Set
Actual Time 6:56 AM CST 4:34 PM CST
Civil Twilight 6:27 AM CST 5:03 PM CST
Nautical Twilight 5:55 AM CST 5:36 PM CST
Astronomical Twilight 5:23 AM CST 6:07 PM CST
Moon 7:35 AM CST (12/25) 5:53 PM CST (12/25)
Length of Visible Light 10h 35m
Length of Day
9h 37m
New Moon, 1% of the Moon is Illuminated
Dec 25
New Moon
Jan 1
First Quarter
Jan 9
Full
Jan 16
Last Quarter
Jan 23
New

Hourly Weather History & Observations

Time (CST) Temp. Windchill Dew Point Humidity Pressure Visibility Wind Dir Wind Speed Gust Speed Precip Events Conditions
12:53 AM 33.1 °F 30.0 °F 28.0 °F 82% 30.39 in 10.0 mi South 3.5 mph - N/A   Clear
1:53 AM 32.0 °F - 27.0 °F 82% 30.39 in 10.0 mi Calm Calm - N/A   Clear
2:53 AM 32.0 °F - 28.0 °F 85% 30.39 in 10.0 mi Calm Calm - N/A   Clear
3:53 AM 33.1 °F - 30.0 °F 89% 30.36 in 9.0 mi Calm Calm - N/A   Clear
4:53 AM 32.0 °F - 28.9 °F 88% 30.36 in 9.0 mi Calm Calm - N/A   Clear
5:53 AM 33.1 °F - 30.0 °F 89% 30.37 in 8.0 mi Calm Calm - N/A   Clear
6:53 AM 33.1 °F - 30.0 °F 89% 30.36 in 8.0 mi Calm Calm - N/A   Clear
7:53 AM 36.0 °F 32.1 °F 30.9 °F 82% 30.36 in 9.0 mi SSW 4.6 mph - N/A   Clear
8:53 AM 39.0 °F 34.0 °F 33.1 °F 79% 30.37 in 10.0 mi SSW 6.9 mph - N/A   Clear
9:53 AM 44.1 °F 40.1 °F 35.1 °F 71% 30.39 in 10.0 mi SW 6.9 mph - N/A   Clear
10:53 AM 48.9 °F - 32.0 °F 52% 30.36 in 10.0 mi SW 9.2 mph - N/A   Clear
11:53 AM 52.0 °F - 30.0 °F 43% 30.33 in 10.0 mi SW 9.2 mph - N/A   Clear
12:53 PM 55.9 °F - 28.9 °F 36% 30.30 in 10.0 mi WSW 10.4 mph - N/A   Clear
1:53 PM 55.9 °F - 27.0 °F 33% 30.27 in 10.0 mi WSW 9.2 mph - N/A   Clear
2:53 PM 55.9 °F - 27.0 °F 33% 30.28 in 10.0 mi West 12.7 mph - N/A   Clear
3:53 PM 54.0 °F - 24.1 °F 31% 30.29 in 10.0 mi West 11.5 mph 23.0 mph N/A   Clear
4:53 PM 50.0 °F - 23.0 °F 35% 30.30 in 10.0 mi West 4.6 mph - N/A   Clear
5:53 PM 48.0 °F - 24.1 °F 39% 30.32 in 10.0 mi WSW 4.6 mph - N/A   Clear
6:53 PM 45.0 °F 43.5 °F 25.0 °F 46% 30.34 in 10.0 mi West 3.5 mph - N/A   Clear
7:53 PM 41.0 °F 39.0 °F 25.0 °F 53% 30.35 in 10.0 mi WNW 3.5 mph - N/A   Clear
8:53 PM 42.1 °F - 26.1 °F 53% 30.36 in 10.0 mi Calm Calm - N/A   Clear
9:53 PM 43.0 °F 40.3 °F 27.0 °F 53% 30.38 in 10.0 mi NNW 4.6 mph - N/A   Clear
11:53 PM 36.0 °F - 27.0 °F 70% 30.38 in 10.0 mi Calm Calm - N/A   Clear